Find Luch-1

NORAD ID: 23680 Int'l Des: 1995-054 Owner: VKS Country: RU operational
HEOCIRCULARGSO

实时位置

正在加载3D地球...

关于 Luch-1

正在加载描述...

即将过境

Passes for default location (London). Set your location on the main map for personalized predictions.

高度历史

Loading altitude history...

两行轨道根数

1 23680U 95054A 26107.21225424 -.00000105 00000-0 00000-0 0 9997
2 23680 15.0270 359.7310 0004954 138.6347 218.3962 1.00266870111732
Epoch: Apr 17, 2026 • Age: 12 hours

当前状态

高度 35771.4 km
速度 3.08 km/s
星下点 0.41°N, 75.09°E
发射日期 Oct 11, 1995
运行时间 30.5 years
类型 other

技术详情

分类 Payload
质量 2400.00 kg
干质量 2200.00 kg
总质量 2400.00 kg
长度 6.60 m
直径 4.10 m
跨度 16.00 m
形状 Cyl + 2 Pan + 2 Dish
制造商 NPOPMR
平台类型 KAUR-4 Al'tair
阶段状态 In Orbit
所有者/国家 VKS/RU

Most Searched